When you browse on this site, cookies collect data to enhance your experience and personalize the content and advertising you see.
Visit our Privacy Policy to learn more. By continuing to use the site, you agree to this use of cookies and data.
  • In Österreich
  • Länderverzeichnis
  • Für 7 Tage
  • Wassertemperatur
  • Satellitenkarten
  • Wetterkarte
  • News
  • Widgets
  • user-avatar
    Anmelden

    Stündliche Wetter Rigny-Ussé

    Heute, 21 Juli, Sonntag

    Zeit Temperatur Niederschläge Wind Luftdruck Luftfeuchtigkeit
    00:00 +16°C° 0 mm 3 m/S 760 mmHg 87%
    01:00 +15°C° 0 mm 2 m/S 760 mmHg 90%
    02:00 +15°C° 0 mm 2 m/S 760 mmHg 92%
    03:00 +14°C° 0 mm 1 m/S 760 mmHg 95%
    04:00 +15°C° 0 mm 1 m/S 760 mmHg 92%
    05:00 +16°C° 0 mm 1 m/S 760 mmHg 90%
    06:00 +18°C° 0 mm 1 m/S 761 mmHg 87%
    07:00 +18°C° 0 mm 0 m/S 761 mmHg 79%
    08:00 +20°C° 0 mm 0 m/S 761 mmHg 71%
    09:00 +22°C° 0 mm 0 m/S 762 mmHg 63%
    10:00 +24°C° 0 mm 0 m/S 761 mmHg 57%
    11:00 +27°C° 0 mm 1 m/S 761 mmHg 52%
    12:00 +28°C° 0 mm 1 m/S 761 mmHg 46%
    13:00 +29°C° 0 mm 1 m/S 761 mmHg 44%
    14:00 +29°C° 0 mm 2 m/S 761 mmHg 42%
    15:00 +30°C° 0 mm 2 m/S 761 mmHg 40%
    16:00 +29°C° 0 mm 2 m/S 761 mmHg 43%
    17:00 +29°C° 0 mm 1 m/S 760 mmHg 46%
    18:00 +28°C° 0 mm 1 m/S 760 mmHg 49%
    19:00 +26°C° 0 mm 1 m/S 761 mmHg 55%
    20:00 +24°C° 0 mm 1 m/S 761 mmHg 61%
    21:00 +22°C° 0 mm 1 m/S 762 mmHg 67%
    22:00 +21°C° 0 mm 1 m/S 762 mmHg 71%
    23:00 +20°C° 0 mm 1 m/S 762 mmHg 75%

    Morgen, 22 Juli, Montag

    Zeit Temperatur Niederschläge Wind Luftdruck Luftfeuchtigkeit
    00:00 +19°C° 0 mm 1 m/S 762 mmHg 80%
    01:00 +19°C° 0 mm 1 m/S 762 mmHg 81%
    02:00 +18°C° 0 mm 1 m/S 762 mmHg 81%
    03:00 +18°C° 0 mm 1 m/S 761 mmHg 82%
    04:00 +19°C° 0 mm 1 m/S 761 mmHg 79%
    05:00 +20°C° 0 mm 1 m/S 761 mmHg 76%
    06:00 +20°C° 0 mm 1 m/S 761 mmHg 73%
    07:00 +23°C° 0 mm 1 m/S 761 mmHg 65%
    08:00 +25°C° 0 mm 1 m/S 762 mmHg 57%
    09:00 +28°C° 0 mm 1 m/S 762 mmHg 49%
    10:00 +29°C° 0 mm 1 m/S 762 mmHg 44%
    11:00 +31°C° 0 mm 2 m/S 761 mmHg 40%
    12:00 +32°C° 0 mm 2 m/S 761 mmHg 35%
    13:00 +34°C° 0 mm 2 m/S 760 mmHg 33%
    14:00 +34°C° 0 mm 2 m/S 760 mmHg 31%
    15:00 +35°C° 0 mm 2 m/S 760 mmHg 30%
    16:00 +34°C° 0 mm 2 m/S 759 mmHg 33%
    17:00 +34°C° 0 mm 2 m/S 759 mmHg 36%
    18:00 +32°C° 0 mm 1 m/S 759 mmHg 39%
    19:00 +30°C° 0 mm 2 m/S 759 mmHg 41%
    20:00 +28°C° 0 mm 2 m/S 759 mmHg 44%
    21:00 +26°C° 0 mm 2 m/S 759 mmHg 47%
    22:00 +25°C° 0 mm 2 m/S 759 mmHg 49%
    23:00 +24°C° 0 mm 2 m/S 758 mmHg 50%

    übermorgen, 23 Juli, Dienstag

    Zeit Temperatur Niederschläge Wind Luftdruck Luftfeuchtigkeit
    00:00 +24°C° 0 mm 3 m/S 758 mmHg 52%
    01:00 +22°C° 0 mm 3 m/S 758 mmHg 56%
    02:00 +21°C° 0 mm 3 m/S 758 mmHg 60%
    03:00 +21°C° 0 mm 3 m/S 758 mmHg 65%
    04:00 +21°C° 0 mm 3 m/S 757 mmHg 66%
    05:00 +22°C° 0 mm 3 m/S 757 mmHg 68%
    06:00 +24°C° 0 mm 3 m/S 757 mmHg 69%
    07:00 +26°C° 0 mm 4 m/S 757 mmHg 63%
    08:00 +29°C° 0 mm 4 m/S 757 mmHg 57%
    09:00 +32°C° 0 mm 4 m/S 757 mmHg 51%
    10:00 +35°C° 0 mm 4 m/S 756 mmHg 44%
    11:00 +37°C° 0 mm 4 m/S 756 mmHg 38%
    12:00 +40°C° 0 mm 4 m/S 755 mmHg 31%
    13:00 +41°C° 0 mm 4 m/S 755 mmHg 28%
    14:00 +42°C° 0 mm 4 m/S 754 mmHg 26%
    15:00 +43°C° 0 mm 3 m/S 754 mmHg 23%
    16:00 +42°C° 0 mm 3 m/S 754 mmHg 26%
    17:00 +40°C° 0 mm 3 m/S 753 mmHg 28%
    18:00 +40°C° 0 mm 3 m/S 753 mmHg 31%
    19:00 +37°C° 0.1 mm 3 m/S 753 mmHg 36%
    20:00 +34°C° 0.1 mm 3 m/S 753 mmHg 41%
    21:00 +30°C° 0.1 mm 3 m/S 754 mmHg 45%
    22:00 +28°C° 0.3 mm 3 m/S 754 mmHg 52%
    23:00 +27°C° 0.3 mm 2 m/S 754 mmHg 58%

    24 Juli, Mittwoch

    Zeit Temperatur Niederschläge Wind Luftdruck Luftfeuchtigkeit
    00:00 +25°C° 0.3 mm 2 m/S 754 mmHg 64%
    01:00 +24°C° 0 mm 2 m/S 754 mmHg 67%
    02:00 +23°C° 0 mm 2 m/S 754 mmHg 70%
    03:00 +22°C° 0 mm 1 m/S 754 mmHg 73%
    04:00 +22°C° 0 mm 1 m/S 754 mmHg 76%
    05:00 +22°C° 0 mm 1 m/S 754 mmHg 78%
    06:00 +23°C° 0 mm 1 m/S 754 mmHg 81%
    07:00 +25°C° 0 mm 1 m/S 755 mmHg 73%
    08:00 +27°C° 0 mm 2 m/S 755 mmHg 66%
    09:00 +29°C° 0 mm 2 m/S 755 mmHg 59%
    10:00 +31°C° 0 mm 2 m/S 755 mmHg 52%
    11:00 +34°C° 0 mm 2 m/S 754 mmHg 45%
    12:00 +36°C° 0 mm 3 m/S 754 mmHg 39%
    13:00 +37°C° 0 mm 3 m/S 754 mmHg 36%
    14:00 +38°C° 0 mm 3 m/S 753 mmHg 33%
    15:00 +39°C° 0 mm 3 m/S 753 mmHg 30%
    16:00 +39°C° 0 mm 3 m/S 752 mmHg 32%
    17:00 +38°C° 0 mm 3 m/S 752 mmHg 34%
    18:00 +38°C° 0 mm 2 m/S 752 mmHg 36%
    19:00 +35°C° 0 mm 2 m/S 752 mmHg 41%
    20:00 +32°C° 0 mm 2 m/S 752 mmHg 45%
    21:00 +30°C° 0 mm 2 m/S 752 mmHg 50%
    22:00 +29°C° 0 mm 3 m/S 752 mmHg 50%
    23:00 +29°C° 0 mm 3 m/S 752 mmHg 49%

    25 Juli, Donnerstag

    Zeit Temperatur Niederschläge Wind Luftdruck Luftfeuchtigkeit
    00:00 +28°C° 0 mm 4 m/S 751 mmHg 49%
    01:00 +28°C° 0 mm 4 m/S 751 mmHg 51%
    02:00 +27°C° 0 mm 4 m/S 751 mmHg 54%
    03:00 +27°C° 0 mm 4 m/S 751 mmHg 56%
    04:00 +27°C° 0 mm 4 m/S 750 mmHg 53%
    05:00 +27°C° 0 mm 4 m/S 750 mmHg 51%
    06:00 +27°C° 0 mm 4 m/S 750 mmHg 48%
    07:00 +29°C° 0 mm 5 m/S 751 mmHg 43%
    08:00 +32°C° 0 mm 6 m/S 751 mmHg 39%
    09:00 +34°C° 0 mm 6 m/S 751 mmHg 34%
    10:00 +35°C° 0 mm 6 m/S 751 mmHg 34%
    11:00 +36°C° 0 mm 6 m/S 751 mmHg 34%
    12:00 +38°C° 0 mm 6 m/S 751 mmHg 34%
    13:00 +36°C° 0 mm 6 m/S 751 mmHg 35%
    14:00 +36°C° 0 mm 7 m/S 751 mmHg 36%
    15:00 +35°C° 0 mm 7 m/S 751 mmHg 37%
    16:00 +34°C° 0 mm 6 m/S 752 mmHg 40%
    17:00 +32°C° 0 mm 6 m/S 752 mmHg 43%
    18:00 +30°C° 0 mm 5 m/S 752 mmHg 46%
    19:00 +28°C° 0 mm 5 m/S 753 mmHg 49%
    20:00 +26°C° 0 mm 5 m/S 753 mmHg 53%
    21:00 +23°C° 0 mm 5 m/S 754 mmHg 57%
    22:00 +22°C° 0.1 mm 6 m/S 754 mmHg 64%
    23:00 +20°C° 0.1 mm 6 m/S 755 mmHg 71%

    26 Juli, Freitag

    Zeit Temperatur Niederschläge Wind Luftdruck Luftfeuchtigkeit
    00:00 +19°C° 0.1 mm 6 m/S 755 mmHg 78%
    01:00 +17°C° 2.3 mm 5 m/S 756 mmHg 83%
    02:00 +17°C° 2.3 mm 4 m/S 756 mmHg 88%
    03:00 +16°C° 2.3 mm 3 m/S 756 mmHg 93%
    04:00 +16°C° 3.1 mm 3 m/S 756 mmHg 94%
    05:00 +16°C° 3.1 mm 3 m/S 757 mmHg 94%
    06:00 +16°C° 3.1 mm 3 m/S 757 mmHg 95%
    07:00 +17°C° 0.2 mm 3 m/S 757 mmHg 92%
    08:00 +18°C° 0.2 mm 3 m/S 758 mmHg 88%
    09:00 +19°C° 0.2 mm 4 m/S 758 mmHg 85%
    10:00 +20°C° 0.2 mm 4 m/S 758 mmHg 76%
    11:00 +22°C° 0.2 mm 3 m/S 758 mmHg 67%
    12:00 +24°C° 0.2 mm 3 m/S 758 mmHg 59%
    13:00 +25°C° 0.1 mm 4 m/S 758 mmHg 52%
    14:00 +26°C° 0.1 mm 4 m/S 758 mmHg 46%
    15:00 +27°C° 0.1 mm 4 m/S 758 mmHg 39%
    16:00 +27°C° 0 mm 4 m/S 758 mmHg 43%
    17:00 +26°C° 0 mm 4 m/S 758 mmHg 46%
    18:00 +25°C° 0 mm 4 m/S 758 mmHg 50%
    19:00 +22°C° 0 mm 3 m/S 758 mmHg 55%
    20:00 +21°C° 0 mm 3 m/S 758 mmHg 60%
    21:00 +19°C° 0 mm 3 m/S 759 mmHg 66%
    22:00 +18°C° 0 mm 3 m/S 759 mmHg 73%
    23:00 +17°C° 0 mm 3 m/S 759 mmHg 80%
    Mehr zeigen